Regional Weather Roundup
Issued by NWS

Home | Current Version | Previous Version | Graphics & Text | Print | Product List | Glossary On
Versions: 1 2 3 4 5 6 7 8 9 10 11 12 13 14 15 16 17 18 19 20 21 22 23 24 25 26 27 28 29 30 31 32 33 34 35 36 37 38 39 40 41 42 43 44 45 46 47 48 49 50
000
ASUS43 KLMK 230202
RWRKY
KENTUCKY REGIONAL WEATHER ROUNDUP
NATIONAL WEATHER SERVICE LOUISVILLE KY
1000 PM EDT THU JUN 22 2017

NOTE "FAIR" INDICATES FEW OR NO CLOUDS BELOW 12,000 FEET
WITH NO SIGNIFICANT WEATHER AND/OR OBSTRUCTIONS TO VISIBILITY.

KYZ001>023-026-027-061>063-070>075-230300-
WESTERN AND SOUTH CENTRAL KENTUCKY

CITY           SKY/WX    TMP DP  RH WIND       PRES   REMARKS
PADUCAH        CLOUDY    80  72  76 S6        29.78R
HENDERSON      CLOUDY    76  74  93 SE5       29.82R
OWENSBORO      PTCLDY    75  73  93 SE9       29.83S
HOPKINSVILLE   PTCLDY    78  74  87 SE7       29.83S
BOWLING GREEN  CLOUDY    78  74  87 S13       29.87R
GLASGOW        NOT AVBL
$$

KYZ024-025-028>034-038-045-046-053-230300-
NORTH CENTRAL KENTUCKY

CITY           SKY/WX    TMP DP  RH WIND       PRES   REMARKS
LOUISVILLE/SDF MOCLDY    73  72  96 SE8       29.86F
LOUISVILLE/LOU CLOUDY    73  73 100 SE5       29.87F
FORT KNOX      MOCLDY    72  72 100 SE3       29.86F
$$

KYZ035>037-039>044-047>052-055>060-089>105-230300-
NORTHEAST KENTUCKY

CITY           SKY/WX    TMP DP  RH WIND       PRES   REMARKS
LEXINGTON      CLOUDY    71  68  90 S9        29.92F
COVINGTON      LGT RAIN  70  69  97 S14       29.89S
FRANKFORT      CLOUDY    71  68  90 S7        29.89F
$$

KYZ054-064>069-076>088-106>120-230300-
SOUTHEAST KENTUCKY

CITY           SKY/WX    TMP DP  RH WIND       PRES   REMARKS
JACKSON        MOCLDY    69  67  93 VRB5      29.98R
LONDON         CLOUDY    71  67  87 CALM      29.97S
SOMERSET       CLOUDY    70  70 100 S5        29.96S
MIDDLESBORO    DRIZZLE   71  71 100 CALM      30.01R
MONTICELLO     CLOUDY    74  71  91 VRB7      29.96S
$$




USA.gov is the U.S. government's official web portal to all federal, state and local government web resources and services.